Regional Weather Roundup
Issued by NWS

Home | Current Version | Previous Version | Graphics & Text | Print | Product List | Glossary On
Versions: 1 2 3 4 5 6 7 8 9 10 11 12 13 14 15 16 17 18 19 20 21 22 23 24 25 26 27 28 29 30 31 32 33 34 35 36 37 38 39 40 41 42 43 44 45 46 47 48 49 50
000
ASUS43 KLSX 250807
RWRMO

WEATHER SUMMARY FOR MISSOURI
NATIONAL WEATHER SERVICE SPRINGFIELD MO
200 AM CST SUN JAN 25 2015

NOTE: "FAIR" INDICATES FEW OR NO CLOUDS BELOW 12,000 FEET WITH NO
       SIGNIFICANT WEATHER AND/OR OBSTRUCTIONS TO VISIBILITY.
       CURRENT SKY AND/OR WEATHER CONDITIONS ARE NOT AVAILABLE FOR
       CHILLICOTHE AND FARMINGTON.

MOZ001>031-035>038-043-044-053-054-250900-
...NORTHERN AND WESTERN MISSOURI...

CITY           SKY/WX    TMP DP  RH WIND       PRES   REMARKS
KANSAS CTY INT DRIZZLE   45  44  97 W12       29.64F
KANSAS C DTWN  LGT RAIN  48  44  86 W9        29.65S
LEE`S SUMMIT   CLOUDY    47  43  86 W13G24    29.65S
ST JOSEPH      CLOUDY    45  41  86 W13       29.63S
CHILLICOTHE      N/A     45  41  86 SW7       29.61S
KIRKSVILLE     LGT RAIN  42  34  73 SW3       29.59S

$$
MOZ066>068-077>081-088>096-101>105-250900-
...SOUTHWEST MISSOURI...

CITY           SKY/WX    TMP DP  RH WIND       PRES   REMARKS
SPRINGFIELD    CLOUDY    48  33  56 SW8       29.71F
JOPLIN         CLOUDY    50  32  50 SW14      29.72F

$$
MOZ032>034-039>042-045>050-055>058-069>072-250900-
...CENTRAL MISSOURI...

CITY           SKY/WX    TMP DP  RH WIND       PRES   REMARKS
COLUMBIA       LGT RAIN  46  43  89 SW9       29.63F
JEFFERSON CITY CLOUDY    48  41  76 W12       29.65F
ROLLA          LGT RAIN  46  37  71 SW9       29.66F
SEDALIA        CLOUDY    46  42  86 SW10      29.64F
WHITEMAN AFB   LGT RAIN  46  43  92 W9        29.63F
OSAGE BEACH    CLOUDY    48  36  61 SW7       29.67F

$$
MOZ051-052-059>065-250900-
...EAST CENTRAL MISSOURI...

CITY           SKY/WX    TMP DP  RH WIND       PRES   REMARKS
ST LOUIS INTL  CLOUDY    50  32  50 SW10      29.64F
SPIRIT OF STL  LGT RAIN  50  34  54 SW12      29.65S
ST CHARLES     CLOUDY    38  34  85 S3        29.64S

$$
MOZ072>076-082>087-097>100-106>115-250900-
...SOUTH CENTRAL AND SOUTHEAST MISSOURI...

CITY           SKY/WX    TMP DP  RH WIND       PRES   REMARKS
CAPE GIRARDEAU CLOUDY    41  34  76 S10       29.75F
FARMINGTON     CLOUDY    48  30  49 MISG      29.72F
POPLAR BLUFF   CLOUDY    40  32  73 SW8       29.76F
WEST PLAINS    CLOUDY    44  30  57 SW8       29.73F

$$



USA.gov is the U.S. government's official web portal to all federal, state and local government web resources and services.